Regional Weather Roundup
Issued by NWS

Home | Current Version | Previous Version | Text Only | Print | Product List | Glossary Off
Versions: 1 2 3 4 5 6 7 8 9 10 11 12 13 14 15 16 17 18 19 20 21 22 23 24 25 26 27 28 29 30 31 32 33 34 35 36 37 38 39 40 41 42 43 44 45 46 47 48 49 50

000
ASUS45 KTFX 271204
RWRMT
MONTANA HOURLY WEATHER ROUNDUP
NATIONAL WEATHER SERVICE GREAT FALLS MT
504 AM MST THU NOV 27 2014

NOTE: "FAIR" INDICATES FEW OR NO CLOUDS BELOW 12000 FEET WITH NO
SIGNIFICANT WEATHER AND/OR OBSTRUCTIONS TO VISIBILITY.

* THESE STATIONS ARE NOT UNDER NWS QUALITY CONTROL. THEY DO NOT
   REPORT WEATHER SUCH AS PRECIPITATION OR FOG.

MTZ001>007-043-271300-
WEST OF THE DIVIDE
CITY           SKY/WX    TMP DP  RH WIND       PRES   REMARKS
KALISPELL      FOG       34  34 100 CALM      29.88F
MISSOULA       FOG       30  30 100 NW5       30.01F VSB 1/2  WCI  25
BUTTE          CLOUDY    45  25  45 W7        30.05F
MULLAN PASS    LGT RAIN  36  32  85 SW12G29   29.95F WCI  28
* ESSEX        N/A       33  32  96 NE2        N/A
* LINCOLN      N/A       40  31  70 W3G9       N/A
* LOOKOUT PASS N/A       42  34  73 S4G9       N/A
* POLSON       N/A       38  35  89 S2G7       N/A
* RONAN APT    PTCLDY    39  34  82 SE6        N/A   WCI  35
* SEELEY LAKE  N/A       33  32  96 SE1        N/A
* THOMP F APT  MOCLDY    32  29  89 E2         N/A
* YAAK HILL    N/A       34  32  92 NE2        N/A
$$

MTZ008-052>055-271300-
SOUTHWEST MONTANA
CITY           SKY/WX    TMP DP  RH WIND       PRES   REMARKS
BOZEMAN        CLOUDY    34  28  79 S8        30.03F WCI  27
DILLON         MOCLDY    41  25  53 S10       30.08F
* W YELLOWSTON CLOUDY    33  29  85 E3G8       N/A
* ENNIS APT    CLOUDY    41  28  60 SE15G22    N/A
* THREE FORKS  MOCLDY    23   3  42 N/A        N/A
* BOULDER HILL N/A       39  20  46 S15G20     N/A   WCI  31
* MONIDA PASS  N/A       30  30 100 SE19       N/A   WCI  18
* RAYNOLDS PAS N/A       33  19  56 S17G30     N/A   WCI  22
* WHITEHALL    N/A       48  24  39 W13G23     N/A
* WISE RIVER   N/A       34  25  70 W5         N/A   WCI  29
$$

MTZ009>010-012-014-046-048-049-054-271300-
EAST SLOPES AND CENTRAL MONTANA
CITY           SKY/WX    TMP DP  RH WIND       PRES   REMARKS
CUT BANK       FOG       25  23  92 SE10      29.79F VSB M1/4 WCI  15
GREAT FALLS    MOCLDY    39  30  70 S10       29.84F WCI  32
HELENA         FOG       27  25  92 CALM      29.96F VSB M1/4
MALMSTROM AFB  CLOUDY    37  32  82 S10       29.86F WCI  30
* DEARBORN     N/A       50  30  46 S1G18      N/A
* EAST GLACIER N/A       38  35  89 W31G44     N/A   WCI  26
* MONARCH      N/A       42  21  43 S10G24     N/A
* PENDROY      N/A       32  32 100 W5G11      N/A   WCI  27
* ROGERS PASS  N/A       41  28  60 SE18G32    N/A
* SAINT MARY   N/A       40  35  82 SW12G24    N/A   WCI  33
* SWEET GRASS  N/A       25  25 100 S17G22     N/A   WCI  12
$$

MTZ011-013-016-021-035-040-045-047-050-051-271300-
NORTH CENTRAL MONTANA
CITY           SKY/WX    TMP DP  RH WIND       PRES   REMARKS
HAVRE          CLOUDY    28  27  96 SE3       29.88F
LEWISTOWN      CLOUDY    41  30  65 SW15      29.90F
* N BAR RANCH  CLOUDY    43  32  65 W9        29.90F
* CHESTER      N/A       28  26  92 S5         N/A   WCI  22
* DENTON       N/A       30  29  96 SE2        N/A
* GEYSER       N/A       41  27  58 SW24       N/A
* JUDITH GAP   N/A       27  27 100 SE9        N/A   WCI  18
* LOMA         N/A       31  29  92 E13        N/A   WCI  21
$$

MTZ017>020-022>027-061-062-271300-
NORTHEAST MONTANA
CITY           SKY/WX    TMP DP  RH WIND       PRES   REMARKS
GLASGOW        LGT SNOW  19  16  88 E16       30.05F VSB 1 1/4 WCI   4
GLENDIVE       MOCLDY    19  16  88 E6        30.13F WCI  11
JORDAN         CLOUDY    27  25  92 SE13      30.01F WCI  16
SIDNEY         CLOUDY    18  12  77 E6        30.20F WCI  10
WOLF POINT     CLOUDY    18  12  77 E10       30.14F WCI   6
* BEAVER HILL  N/A       22  18  85 SE12       N/A   WCI  10
* CIRCLE       N/A       26  23  88 SE5G10     N/A   WCI  20
* LINDSAY DVD  N/A       19  17  92 E12        N/A   WCI   6
* NAVAJO       N/A        7   4  87 E4         N/A
* SACO         N/A       20  18  92 E17        N/A   WCI   5
$$

MTZ028>042-056>058-271300-
SOUTHCENTRAL AND SOUTHEAST MONTANA
CITY           SKY/WX    TMP DP  RH WIND       PRES   REMARKS
BAKER          LGT SNOW  21  18  88 SE16      30.12F VSB 3    WCI   7
BILLINGS       FOG       28  27  96 CALM      30.01S
LIVINGSTON     CLOUDY    45  28  51 SW38G44   29.97F
MILES CITY     CLOUDY    27  21  78 SE14      30.06F WCI  16
* LAUREL APT   CLOUDY    30  23  75 N/A        N/A
* ALZADA       N/A       19  18  96 E9         N/A   WCI   8
* HYSHAM       N/A       30  27  89 W6G11      N/A   WCI  24
* LAME DEER    N/A       26  25  96 S5         N/A   WCI  20
* REED POINT   N/A       26  26 100 SW2G9      N/A
* ROSCOE HILL  N/A       48  15  27 S13G37     N/A
$$

REGIONAL REPORTS...DAKOTAS
CITY           SKY/WX    TMP DP  RH WIND       PRES   REMARKS
WILLISTON      MOCLDY    10   7  88 CALM      30.22F
DICKINSON      CLOUDY    12   9  88 S15       30.17F WCI  -4
BEACH          CLOUDY    19  18  96 SE10      30.15S WCI   8
CROSBY         CLEAR      3   1  91 SE7       30.24F WCI  -9
BISMARCK       MOCLDY    -8 -11  86 E7        30.38F WCI -23
GRAND FORKS    MOCLDY   -15 -20  77 S5        30.51F WCI -28
FARGO          PTCLDY   -11 -17  74 SW3       30.54F
BUFFALO SD     MOCLDY    19  16  88 SE10      30.08F WCI   8
RAPID CITY     CLOUDY    19  18  96 SE8       30.16F WCI   9
$$

REGIONAL REPORTS...WYOMING/IDAHO/WASHINGTON
CITY           SKY/WX    TMP DP  RH WIND       PRES   REMARKS
GILLETTE       MOCLDY    27  21  78 SE14      30.02F WCI  16
SHERIDAN       MOCLDY    21  19  92 CALM      30.03S
CODY           MOCLDY    25  21  85 N7        30.03S WCI  17
YELLOWSTONE LA CLOUDY    30  27  89 N3        30.23F
SALMON         CLOUDY    30  28  92 CALM      30.16S
MULLAN PASS    LGT RAIN  36  32  85 SW12G29   29.95S WCI  28
SAND POINT     RAIN      36  36 100 CALM      29.89F VSB 3
SPOKANE        CLOUDY    50  37  61 S20G26    29.86F
$$

REGIONAL REPORTS...SASKATCHEWAN
CITY           SKY/WX    TMP DP  RH WIND       PRES   REMARKS
SWIFT CURRENT  LGT SNOW  21  19  92 SE15G22   29.99F VSB 2    WCI   7
REGINA         LGT SNOW   9   5  84 SE14      30.18F WCI  -7

$$




USA.gov is the U.S. government's official web portal to all federal, state and local government web resources and services.